www.pogodaiklimat.ru

Погода и климат >> Архив погоды >> Россия >> Мордовия >> Краснослободск


ПОГОДА в Краснослободске

  • Прогноз погоды в Краснослободске
  • Монитор погоды в Краснослободске

АРХИВ ПОГОДЫ в Краснослободске

Время (UTC), дата Ветер
(напр.,м/с)
 
Видим.   Явления Облачность Т
(С)
Тd
(С)
f
(%)
Тe
(С)
Тes
(С)
Комфортность P
(гПа)
Po
(гПа)
Тmin
(С)
Tmax
(С)
R
(мм)
R24
(мм)
S
(см)
03 11.07 ЮЗ 4-6
{6}
20 км 10/0
[Cs]
+12.4 +10.5 88 +10 +11 1001.8 979.7 +10.6
06 11.07 З 4-6
{6}
20 км 3/0
[Cc]
+17.4 +10.7 65 +17 +24 1002.0 980.2
09 11.07 З 6-8
{8}
20 км 6/6 1000 м
[Cu med, cong]
+19.7 +10.0 53 +21 +23 комфорт 1002.5 980.9
12 11.07 СЗ 8-10
{10}
20 км 10/0
[As op]
+19.8 +10.6 55 +21 +21 комфорт 1002.0 980.4
15 11.07 ЮЗ 6-8
{8}
20 км 10/0
[Ac As]
+21.0 +9.4 47 +22 +23 комфорт 1002.6 981.1 +21.3
18 11.07 С 2-4
{4}
20 км 10/0
[As op]
+15.9 +11.1 73 +16 +16 1003.8 981.9
21 11.07 С 4-6
{6}
10 км 10/0
[As op]
+14.1 +10.3 78 +13 +13 1003.9 981.9
00 12.07 ЮЗ 2-4
{4}
10 км 8/0
[Ci fib]
+12.5 +9.8 84 +12 +12 1004.2 982.1
03 12.07 Ю 2-4
{4}
20 км ясно +12.2 +9.7 85 +11 +13 1005.3 983.0 +12.0
06 12.07 ЮЗ 2-4
{4}
20 км 3/3 1000 м
[Cu hum]
+19.2 +9.8 54 +21 +28 комфорт 1005.4 983.7
09 12.07 ЮЗ 2-4
{4}
20 км 8/8 600 м
[Sc]
+22.5 +9.8 44 +24 +27 комфорт 1005.4 983.9
12 12.07 З 2-2
{2}
20 км 10/10 600 м
[Sc]
+22.3 +9.8 45 +24 +24 комфорт 1005.4 983.9
15 12.07 З 4-4
{4}
20 км 10/10 600 м
[Sc]
+20.5 +11.7 57 +23 +23 комфорт 1005.5 983.9 +23.5
18 12.07 С 4-4
{4}
20 км 10/0
[Cc]
+17.7 +10.6 63 +17 +17 1006.4 984.5
21 12.07 С 2-4
{4}
10 км 8/0
[Ci fib]
+14.5 +10.7 78 +14 +14 1006.6 984.5
00 13.07 С 2-4
{4}
10 км 3/0
[Ci fib]
+12.5 +11.0 91 +12 +12 1005.8 983.5
03 13.07 З 2-2
{2}
20 км 6/0
[Cs]
+13.9 +12.2 89 +13 +15 1006.2 984.0 +11.4
06 13.07 СВ 2-4
{4}
20 км {ливн. осадки} 6/4 1000 м
[Cu hum Ci fib]
+17.6 +12.8 73 +18 +24 1005.7 983.8
09 13.07 СЗ 2-4
{4}
20 км 8/8 1000 м
[Cu med, cong]
+21.0 +11.2 53 +24 +27 комфорт 1005.8 984.2
12 13.07 СЗ 4-4
{4}
20 км 6/6 1000 м
[Cu med, cong]
+22.2 +11.3 50 +24 +27 комфорт 1005.8 984.3
15 13.07 20 км н/о +22.0 +11.4 51 +24 +25 комфорт 1006.8 985.3 0.0
18 13.07 Ю 2-2
{2}
20 км гроза без осадков 8/8 300 м
[Cb cap]
+16.5 +11.8 74 +17 +17 1008.7 986.7
21 13.07 ЮЗ 2-2
{2}
10 км {гроза} 4/0
[Ci fib]
+13.4 +11.5 88 +13 +13 1009.1 986.9
00 14.07 З 2-4
{4}
10 км {гроза} 3/0
[Ci fib]
+11.4 +10.3 93 +10 +10 1009.3 987.0
03 14.07 З 2-2
{2}
500 м туман ?/? +11.8 +11.0 95 +11 +11 1010.1 987.6 +10.9
06 14.07 СЗ 2-2
{2}
20 км {туман} 4/4 1000 м
[Cu hum]
+18.0 +14.2 78 +19 +25 1009.9 988.0
09 14.07 СЗ 2-4
{4}
20 км 8/8 1000 м
[Cu med, cong]
+20.5 +10.2 52 +23 +26 комфорт 1009.5 987.7
12 14.07 СЗ 2-4
{4}
20 км 8/8 1000 м
[Cu med, cong]
+22.7 +9.9 44 +24 +27 комфорт 1009.3 987.7
15 14.07 С 2-2
{2}
20 км 8/0
[Ac trans]
+22.0 +10.0 46 +24 +25 комфорт 1009.9 988.2 +23.0
18 14.07 штиль 0 20 км 6/0
[Ac trans]
+17.6 +10.7 64 +18 +18 1010.4 988.4
21 14.07 штиль 0 10 км 4/0
[Ci fib]
+13.8 +9.5 75 +13 +13 1010.8 988.5
00 15.07 С 2-2
{2}
10 км ясно +12.1 +8.5 79 +11 +11 1010.8 988.3
03 15.07 С 2-2
{2}
20 км ясно +14.7 +10.3 75 +14 +16 1010.7 988.5 +10.7
06 15.07 С 2-4
{4}
20 км ясно +20.1 +9.2 49 +22 +32 комфорт 1010.1 988.3
09 15.07 С 4-6
{6}
20 км 6/6 1000 м
[Cu med, cong]
+21.4 +7.3 40 +22 +26 комфорт 1009.8 988.1
12 15.07 З 4-8
{8}
20 км 6/6 1000 м
[Cu med, cong]
+23.1 +6.8 35 +24 +27 комфорт 1009.5 987.9
15 15.07 С 2-4
{4}
20 км 10/0
[As op]
+21.8 +8.4 42 +23 +23 комфорт 1009.9 988.2 +24.1
18 15.07 С 2-4
{4}
20 км 3/0
[Ci fib]
+18.5 +9.4 55 +19 +19 1010.6 988.7
21 15.07 С 2-4
{4}
10 км ясно +16.2 +8.1 59 +16 +16 1011.5 989.4
00 16.07 С 2-4
{4}
10 км ясно +13.7 +8.9 73 +13 +13 1011.7 989.4
03 16.07 штиль 0 20 км 4/0
[Ci fib]
+14.8 +10.3 74 +15 +17 1012.6 990.4 +13.6
06 16.07 штиль 0 20 км 10/0
[Ci fib]
+21.8 +10.7 49 +24 +34 комфорт 1012.3 990.6
09 16.07 С 2-2
{2}
20 км 8/4 1000 м
[Cu hum Ci fib]
+24.5 +8.5 36 +25 +33 комфорт 1012.3 990.8
12 16.07 нст 2-2
{2}
20 км 10/4 1000 м
[Cu hum Ci fib]
+24.7 +8.2 35 +25 +30 комфорт 1011.7 990.2
15 16.07 В 4-4
{4}
20 км 10/0
[Ci fib]
+24.9 +8.9 36 +25 +27 комфорт 1011.0 989.5 +25.5
18 16.07 С 2-2
{2}
20 км 10/0
[Ci fib]
+20.6 +10.5 52 +23 +23 комфорт 1011.4 989.6
21 16.07 С 2-4
{4}
10 км 10/0
[Cs]
+17.1 +10.7 66 +17 +17 1010.7 988.7
00 17.07 З 2-2
{2}
10 км 10/0
[Ci fib]
+16.9 +11.0 68 +17 +17 1011.2 989.1
03 17.07 нст 2-2
{2}
10 км слаб. дождь 10/10 300 м
[Frnb Ns]
+15.6 +13.4 87 +15 +15 1011.0 988.9 +15.3 0.9
06 17.07 ЮВ 2-2
{2}
4000 м слаб. морось {дождь} 10/10 300 м
[St]
+15.8 +14.4 91 +16 +16 1009.8 987.7
09 17.07 В 2-4
{4}
10 км 10/10 300 м
[St]
+17.1 +14.7 86 +17 +17 1008.5 986.6
12 17.07 В 4-6
{6}
10 км {дождь} 10/10 300 м
[St]
+19.0 +16.2 84 +20 +20 1006.8 985.1
15 17.07 В 2-4
{4}
10 км гроза без осадков 10/10 300 м
[Cb calv]
+18.6 +15.4 82 +20 +20 1005.6 983.9 +19.6 0.8
18 17.07 ЮВ 4-8
{8}
10 км гроза, пыльная буря {дождь} 10/10 300 м
[Frnb Ns]
+16.2 +15.3 94 +15 +15 1006.2 984.2
21 17.07 В 2-4
{4}
10 км слаб. дождь 10/10 300 м
[Frnb Ns]
+15.5 +14.8 96 +15 +15 1005.4 983.4
00 18.07 ЮЗ 2-4
{4}
4000 м {дождь} 10/10 300 м
[St]
+15.7 +14.9 95 +16 +16 1005.4 983.4

 

Местоположение метеостанции Краснослободск (Мордовия, Россия): широта 54.43 долгота 43.77 высота над уровнем моря 188 м.

В архиве по умолчанию представлена погода в Краснослободске за последнюю неделю. Архивные данные за месяц целиком и за предыдущие месяцы, начиная с января 2011 года, Вы можете получить, выбрав интересующий диапазон дат из раскрывающегося списка и нажав кнопку "Ввод!".


*Определитесь, кто Вы:
робот инопланетянин человек

Внимание! Время в таблицах - всемирное. Для получения местного времени необходимо прибавить поправку, которая равна 3 ч.

Смотрите также архив погоды в соседних городах и на ближайших метеорологических станциях:

Погода в Темникове (Мордовия, Россия) (41 км)
Погода в Торбеево (Мордовия, Россия) (52 км)
Погода в Инсаре (Мордовия, Россия) (74 км)
Погода в Лукоянове (Нижегородская область, Россия) (82 км)
Погода в Саранске (Мордовия, Россия) (102 км)
Погода в Арзамасе (Нижегородская область, Россия) (105 км)
Погода в Сасово (Рязанская область, Россия) (116 км)
Погода в Большом Болдино (Нижегородская область, Россия) (119 км)
Погода в Пачелме (Пензенская область, Россия) (126 км)
Погода в Земетчино (Пензенская область, Россия) (129 км)

Пояснения к столбцам:

Ветер - указаны скорость ветра в м/с - средняя за 10 мин, порывы в срок и между сроками (в фигурных скобках) и направление, откуда дует ветер: С - северный, СВ - северо-восточный, В - восточный, ЮВ - юго-восточный, Ю - южный, ЮЗ - юго-западный, З - западный, СЗ - северо-западный.
Видимость - горизонтальная дальность видимости в метрах или километрах. При видимости от 1 до 10 км при отсутствии осадков обычно наблюдается дымка, при ухудшении видимости до 1 км и менее - туман. В сухую погоду видимость может ухудшаться дымом, пылью или мглою.
Явления - указаны атмосферные явления, наблюдавшиеся в срок или в последний час перед сроком; фигурными скобками обозначены явления, наблюдавшиеся между сроками (за 1-3 часа до срока); квадратными скобками обозначены град или гололедные отложения с указанием их диаметра в мм.
Облачность - указаны через наклонную черту общая и нижняя облачность в баллах и высота нижней границы облаков в метрах; квадратными скобками обозначены формы облаков: Ci - перистые, Cs - перисто-слоистые, Cc - перисто-кучевые, Ac - высококучевые, As - высокослоистые, Sc - слоисто-кучевые, Ns - слоисто-дождевые, Cu - кучевые, Cb - кучево-дождевые. Подробнее классификацию облаков см. в Атласе облаков (PDF).
T - Температура воздуха - температура, измеренная на высоте 2 м над землей.
Td - Температура точки росы - температура, при понижении до которой содержащийся в воздухе водяной пар достигнет насыщения.
f - Относительная влажность воздуха - влажноcть воздуха, измеренная на высоте 2 м над землей.
Te - Эффективная температура - температура, которую ощущает одетый по сезону человек в тени. Характеристика душности погоды. При расчете учитывается влияние влажности воздуха и скорости ветра на теплоощущения человека.
Tes - Эффективная температура на солнце - температура, которую ощущает человек, с поправкой на солнечный нагрев. Характеристика знойности погоды. Зависит от высоты солнца над горизонтом, облачности и скорости ветра. Ночью, в пасмурную погоду, а также при ветре 12 м/с и более поправка равна нулю.
P - Атмосферное давление - приведенное к уровню моря атмосферное давление.
Po - Атмосферное давление - измеренное на уровне метеостанции атмосферное давление.
Tmin - Минимальная температура - минимум температуры воздуха на высоте 2 м над землей.
Tmax - Максимальная температура - максимум температуры воздуха на высоте 2 м над землей.
R - Количество осадков - Количество выпавших осадков за период времени, мм. При наведении курсора мыши на число - период времени, за который выпало указанное количество осадков.
R24 - Количество осадков - Количество выпавших осадков за 24 часа, мм.
S - Снежный покров - Высота снежного покрова, см. При наведении курсора мыши на число - состояние снежного покрова и степень покрытия местности в баллах.